[[{"header":{"parameterUnit":"m.s-1","parameterCategory":2,"la1":30.2992,"la2":30.254,"lo1":-89.0895,"lo2":-89.0443,"dy":0.0025,"dx":0.0025,"nx":19,"ny":19,"refTime":"2026-05-15T03:00:00:Z","depth":"0","parameterNumber":2,"parameterNumberName":"U-component_of_CURRENTS"},"data":[0,0,0,-0.3298,-0.3301,-0.3413,-0.3413,-0.3319,-0.3317,0,0,0,0,0,0,0,0,0,0,0,-0.3236,-0.3236,-0.3298,-0.3301,-0.3413,-0.3413,-0.3319,-0.3317,0,0,0,0,0,0,0,0,0,0,0,-0.3235,-0.3236,-0.3237,-0.3302,-0.3413,-0.3413,-0.3319,-0.329,0,0,0,0,0,0,0,0,0,0,-0.321,-0.3182,-0.3236,-0.3237,-0.3302,-0.3413,-0.3413,-0.3291,-0.3292,-0.3204,0,-0.3222,0,-0.3278,-0.3307,-0.3306,0,0,0,-0.3287,-0.3182,-0.3227,-0.3237,-0.3304,-0.3413,-0.3359,-0.3294,-0.3294,-0.3204,-0.3221,-0.322,-0.3276,-0.3306,-0.3305,-0.3023,-0.3021,0,0,-0.3281,-0.3235,-0.3228,-0.3228,-0.3327,-0.3355,-0.3362,-0.3296,-0.3278,-0.3221,-0.322,-0.3274,-0.3305,-0.3303,-0.3024,-0.3022,0,0,0,-0.3273,-0.323,-0.3282,-0.3229,-0.3275,-0.3359,-0.3367,-0.3281,-0.3303,-0.3219,-0.3273,-0.3304,-0.3302,-0.3027,-0.3024,-0.2925,0,0,0,-0.3268,-0.3228,-0.3279,-0.325,-0.3277,-0.3311,-0.3352,-0.3307,-0.3304,-0.3274,-0.3304,-0.33,-0.3029,-0.3025,-0.2932,-0.2858,0,0,0,-0.3231,-0.3224,-0.324,-0.3248,-0.3309,-0.3315,-0.3334,-0.3309,-0.3335,-0.3306,-0.33,-0.303,-0.3026,-0.2939,-0.287,-0.279,0,0,0,-0.3177,-0.3144,-0.3238,-0.3202,-0.3308,-0.3278,-0.3335,-0.3284,-0.3244,-0.3303,-0.3028,-0.3024,-0.2941,-0.2877,-0.2797,-0.2618,-0.2571,0,0,-0.3097,-0.3133,-0.311,-0.3197,-0.314,-0.3263,-0.315,-0.3126,-0.3142,-0.3036,-0.3032,-0.293,-0.2871,-0.2792,-0.2354,-0.2316,0,0,0,-0.3059,-0.3016,-0.3019,-0.3017,-0.3058,-0.3029,-0.3051,-0.3024,-0.2935,-0.3108,-0.2864,-0.2828,-0.2783,-0.2687,-0.2655,-0.2601,-0.3003,-0.3003,-0.3004,-0.279,-0.2852,-0.2757,-0.2801,-0.2797,-0.283,-0.2788,-0.2744,-0.2795,-0.2713,-0.2701,-0.2502,-0.2394,-0.2369,-0.2314,-0.2662,-0.2662,-0.2661,-0.2661,-0.2522,-0.2442,-0.2515,-0.2456,-0.2508,-0.2451,-0.2467,-0.2509,-0.2423,-0.2502,-0.2466,-0.2526,-0.2328,-0.2282,-0.2654,-0.2655,-0.2656,-0.2657,-0.2657,-0.2237,-0.2225,-0.2223,-0.2178,-0.2146,-0.2233,-0.2193,-0.2255,-0.2282,-0.2254,-0.2175,-0.2175,-0.2179,-0.2254,-0.2254,-0.2253,-0.2252,-0.2252,-0.2251,-0.197,-0.1976,-0.1931,-0.191,-0.1934,-0.1963,-0.2039,-0.2034,-0.1991,-0.2001,-0.2001,-0.2049,-0.2377,-0.2445,-0.224,-0.2242,-0.2244,-0.2245,-0.2245,-0.1675,-0.1759,-0.1677,-0.1692,-0.1757,-0.1703,-0.1815,-0.1721,-0.1702,-0.1611,-0.1626,-0.1871,-0.1884,-0.1908,-0.1961,-0.1644,-0.1644,-0.1644,-0.1644,-0.1527,-0.1544,-0.1537,-0.1575,-0.1608,-0.1614,-0.1431,-0.137,-0.1322,-0.1266,-0.135,-0.1401,-0.1428,-0.1421,-0.1456,-0.1503,-0.1077,-0.1077,-0.1077,-0.1391,-0.1431,-0.1406,-0.1501,-0.1579,-0.1494,-0.1196,-0.0975,-0.0957,-0.1059,-0.1303,-0.1327,-0.142,-0.1467,-0.1484,-0.1537,-0.1627,0,0]},{"header":{"parameterUnit":"m.s-1","parameterCategory":2,"la1":30.2992,"la2":30.254,"lo1":-89.0895,"lo2":-89.0443,"dy":0.0025,"dx":0.0025,"nx":19,"ny":19,"refTime":"2026-05-15T03:00:00:Z","depth":"0","parameterNumber":3,"parameterNumberName":"V-component_of_CURRENTS"},"data":[0,0,0,-0.0275,-0.0271,-0.0009,-0.0007,0.0414,0.0418,0,0,0,0,0,0,0,0,0,0,0,-0.0372,-0.0371,-0.0275,-0.027,-0.0009,-0.0007,0.0414,0.0418,0,0,0,0,0,0,0,0,0,0,0,-0.0372,-0.0371,-0.0371,-0.027,-0.0009,-0.0007,0.0413,0.0205,0,0,0,0,0,0,0,0,0,0,-0.0056,-0.0184,-0.0372,-0.0371,-0.0269,-0.001,-0.0007,0.0194,0.0218,0.0306,0,0.0313,0,0.0361,0.0444,0.0445,0,0,0,-0.0225,-0.0204,-0.0131,-0.0371,-0.0267,-0.001,-0.0114,0.0207,0.0234,0.0337,0.0319,0.0334,0.0368,0.0446,0.0448,0.0739,0.0739,0,0,-0.024,-0.0309,-0.015,-0.0116,-0.024,-0.0123,-0.0107,0.0223,0.0233,0.032,0.0344,0.0375,0.0449,0.0452,0.0738,0.0739,0,0,0,-0.0312,-0.032,-0.0256,-0.0133,-0.01,-0.0116,-0.0097,0.0219,0.024,0.0349,0.038,0.0451,0.0456,0.0738,0.0739,0.0653,0,0,0,-0.0318,-0.0365,-0.0264,-0.0299,-0.0108,0.0048,-0.0109,0.0217,0.0256,0.0378,0.0451,0.046,0.0738,0.0738,0.0654,0.0602,0,0,0,-0.0377,-0.037,-0.0353,-0.0305,-0.021,0.0044,0.0086,0.0227,0.0274,0.0445,0.0461,0.0738,0.0738,0.0656,0.0606,0.0621,0,0,0,-0.0435,-0.0449,-0.0356,-0.0354,-0.0214,-0.0085,0.0084,0.0196,0.032,0.0453,0.0738,0.0738,0.0656,0.0608,0.0623,0.0635,0.0629,0,0,-0.0488,-0.0457,-0.0454,-0.0365,-0.0293,-0.0115,0.0027,0.0245,0.0375,0.0644,0.0651,0.0654,0.0606,0.0622,0.0672,0.0664,0,0,0,-0.0494,-0.0484,-0.0449,-0.0382,-0.0264,-0.008,0.0124,0.0258,0.0492,0.0448,0.0691,0.0664,0.0676,0.0689,0.0683,0.082,0.0741,0.0741,0.0741,-0.0615,-0.0543,-0.0512,-0.0387,-0.0291,-0.0044,0.0121,0.0356,0.0465,0.0547,0.0622,0.0611,0.0623,0.0619,0.076,0.0664,0.0664,0.0663,0.0663,-0.0662,-0.0626,-0.0525,-0.0469,-0.0285,-0.0149,0.018,0.0298,0.0549,0.0612,0.0629,0.0632,0.0608,0.0761,0.0658,0.0659,0.066,0.066,0.066,-0.071,-0.0679,-0.0649,-0.055,-0.0421,-0.0205,0.0008,0.0219,0.0437,0.0496,0.0545,0.0547,0.066,0.05,0.05,0.0499,0.0499,0.0499,0.0499,-0.0765,-0.0725,-0.0711,-0.0618,-0.0563,-0.041,-0.0105,0.0064,0.0287,0.0456,0.0458,0.0683,0.0562,0.0543,0.0496,0.0497,0.0497,0.0498,0.0498,-0.0779,-0.0794,-0.0768,-0.0736,-0.0575,-0.0324,-0.0169,0.0155,0.0271,0.0383,0.0633,0.0476,0.0512,0.0518,0.0501,0.0446,0.0446,0.0446,0.0446,-0.081,-0.0809,-0.0764,-0.0687,-0.0514,-0.0251,0.0158,0.0394,0.0597,0.0681,0.069,0.0741,0.0737,0.0791,0.0791,0.0782,0.08,0.08,0.0801,-0.0811,-0.0807,-0.0752,-0.0659,-0.0446,-0.0065,0.0437,0.0803,0.0864,0.083,0.0878,0.0863,0.0955,0.0937,0.1035,0.1025,0.1014,0,0]}],[{"header":{"parameterUnit":"m.s-1","parameterCategory":2,"la1":30.2992,"la2":30.254,"lo1":-89.0895,"lo2":-89.0443,"dy":0.0025,"dx":0.0025,"nx":19,"ny":19,"refTime":"2026-05-15T03:00:00:Z","depth":"2","parameterNumber":2,"parameterNumberName":"U-component_of_CURRENTS"},"data":[0,0,0,-0.2644,-0.2647,-0.2893,-0.2894,-0.3036,-0.3035,0,0,0,0,0,0,0,0,0,0,0,-0.2573,-0.2573,-0.2644,-0.2648,-0.2892,-0.2894,-0.3036,-0.3035,0,0,0,0,0,0,0,0,0,0,0,-0.2573,-0.2573,-0.2574,-0.2648,-0.2892,-0.2895,-0.3036,-0.291,0,0,0,0,0,0,0,0,0,0,-0.27,-0.2633,-0.2573,-0.2574,-0.2649,-0.2892,-0.2895,-0.2906,-0.2917,-0.2854,0,-0.2863,0,-0.291,-0.3035,-0.3035,0,0,0,-0.2715,-0.2624,-0.2674,-0.2574,-0.265,-0.2891,-0.2801,-0.2914,-0.2926,-0.2867,-0.2866,-0.2872,-0.2913,-0.3035,-0.3035,-0.2846,-0.2844,0,0,-0.2701,-0.2639,-0.2666,-0.2681,-0.2671,-0.2792,-0.2808,-0.2924,-0.2921,-0.2866,-0.2876,-0.2915,-0.3035,-0.3035,-0.2848,-0.2846,0,0,0,-0.2617,-0.2628,-0.2683,-0.2673,-0.2709,-0.2798,-0.2816,-0.2919,-0.2931,-0.2878,-0.2917,-0.3035,-0.3035,-0.285,-0.2847,-0.2708,0,0,0,-0.2612,-0.2575,-0.2675,-0.2645,-0.2706,-0.2837,-0.2806,-0.2926,-0.294,-0.2916,-0.3035,-0.3034,-0.2853,-0.2849,-0.2716,-0.2653,0,0,0,-0.2569,-0.2571,-0.2584,-0.264,-0.2714,-0.2837,-0.2863,-0.2933,-0.2958,-0.3035,-0.3034,-0.2854,-0.2849,-0.2724,-0.2665,-0.2596,0,0,0,-0.2522,-0.2504,-0.2582,-0.2563,-0.271,-0.2757,-0.2864,-0.2911,-0.2962,-0.3035,-0.2852,-0.2848,-0.2726,-0.2673,-0.2603,-0.2446,-0.2399,0,0,-0.2468,-0.2496,-0.2482,-0.2556,-0.2569,-0.2731,-0.27,-0.2809,-0.2862,-0.2819,-0.2818,-0.2713,-0.2666,-0.2597,-0.2172,-0.2134,0,0,0,-0.2444,-0.2411,-0.2436,-0.2457,-0.254,-0.2571,-0.2687,-0.2685,-0.2673,-0.2859,-0.2656,-0.2629,-0.2592,-0.2509,-0.2477,-0.2825,-0.2826,-0.2826,-0.2827,-0.2241,-0.2302,-0.226,-0.2318,-0.2348,-0.244,-0.2442,-0.2441,-0.2532,-0.2457,-0.2473,-0.2264,-0.2169,-0.2145,-0.2426,-0.2425,-0.2425,-0.2424,-0.2424,-0.2065,-0.2017,-0.2082,-0.2071,-0.2134,-0.2123,-0.215,-0.2202,-0.2153,-0.2246,-0.2218,-0.2311,-0.2102,-0.2412,-0.2414,-0.2416,-0.2417,-0.2418,-0.2419,-0.1879,-0.1873,-0.1883,-0.1871,-0.1854,-0.1939,-0.1897,-0.1962,-0.2001,-0.1974,-0.1943,-0.1944,-0.2226,-0.1987,-0.1986,-0.1986,-0.1985,-0.1985,-0.1984,-0.1703,-0.1715,-0.168,-0.1677,-0.1685,-0.1699,-0.1768,-0.1766,-0.174,-0.1754,-0.1754,-0.2118,-0.2132,-0.22,-0.1974,-0.1976,-0.1977,-0.1978,-0.1979,-0.1492,-0.155,-0.1483,-0.1485,-0.1501,-0.1433,-0.1552,-0.1488,-0.1483,-0.1407,-0.1628,-0.164,-0.1679,-0.1704,-0.1759,-0.1434,-0.1434,-0.1434,-0.1434,-0.1371,-0.1386,-0.1339,-0.1329,-0.1309,-0.1316,-0.1186,-0.1173,-0.1214,-0.1194,-0.1205,-0.1258,-0.1283,-0.1309,-0.1343,-0.1396,-0.0975,-0.0974,-0.0974,-0.1249,-0.1268,-0.1205,-0.1236,-0.1231,-0.116,-0.0965,-0.0835,-0.0802,-0.0964,-0.121,-0.1387,-0.1498,-0.1525,-0.1603,-0.1641,-0.1742,0,0]},{"header":{"parameterUnit":"m.s-1","parameterCategory":2,"la1":30.2992,"la2":30.254,"lo1":-89.0895,"lo2":-89.0443,"dy":0.0025,"dx":0.0025,"nx":19,"ny":19,"refTime":"2026-05-15T03:00:00:Z","depth":"2","parameterNumber":3,"parameterNumberName":"V-component_of_CURRENTS"},"data":[0,0,0,-0.0488,-0.0485,-0.0265,-0.0263,0.0226,0.0231,0,0,0,0,0,0,0,0,0,0,0,-0.0539,-0.0539,-0.0488,-0.0485,-0.0265,-0.0263,0.0226,0.0231,0,0,0,0,0,0,0,0,0,0,0,-0.054,-0.0539,-0.0538,-0.0485,-0.0266,-0.0263,0.0225,0.0024,0,0,0,0,0,0,0,0,0,0,-0.0209,-0.0326,-0.0539,-0.0538,-0.0484,-0.0266,-0.0263,0.0013,0.0037,0.0164,0,0.0165,0,0.0173,0.0261,0.0263,0,0,0,-0.0414,-0.0346,-0.029,-0.0538,-0.0483,-0.0267,-0.0344,0.0025,0.0052,0.0196,0.0171,0.0188,0.0181,0.0264,0.0267,0.0537,0.0537,0,0,-0.0426,-0.0477,-0.031,-0.0275,-0.0463,-0.0352,-0.0339,0.004,0.0059,0.0173,0.0198,0.0189,0.0268,0.0271,0.0538,0.0537,0,0,0,-0.0509,-0.0486,-0.0441,-0.0293,-0.029,-0.0347,-0.0332,0.0044,0.0056,0.0203,0.0195,0.027,0.0276,0.0538,0.0538,0.0444,0,0,0,-0.0513,-0.0539,-0.0448,-0.0471,-0.03,-0.0156,-0.0337,0.0031,0.0072,0.0192,0.027,0.028,0.0539,0.0538,0.0448,0.0398,0,0,0,-0.0543,-0.0542,-0.053,-0.0476,-0.0416,-0.0163,-0.0126,0.004,0.0065,0.0263,0.0282,0.0539,0.0538,0.0451,0.0405,0.0419,0,0,0,-0.058,-0.0587,-0.0532,-0.0526,-0.042,-0.0311,-0.0128,-0.0004,0.0145,0.0273,0.0539,0.0538,0.0452,0.0408,0.0422,0.0452,0.0442,0,0,-0.0613,-0.0592,-0.0587,-0.0534,-0.0477,-0.0334,-0.0215,0.0048,0.0177,0.0444,0.045,0.0446,0.0405,0.042,0.0383,0.0375,0,0,0,-0.0612,-0.0607,-0.0578,-0.0532,-0.0439,-0.0306,-0.0093,0.002,0.0241,0.0245,0.0448,0.0425,0.0438,0.0462,0.0455,0.0532,0.0532,0.0532,0.0532,-0.0687,-0.0638,-0.0611,-0.0526,-0.0452,-0.0262,-0.0134,0.0063,0.0204,0.0252,0.035,0.0296,0.0318,0.0314,0.0358,0.0357,0.0357,0.0357,0.0357,-0.0715,-0.0692,-0.0621,-0.058,-0.0455,-0.0346,-0.0107,-0.0004,0.0201,0.0272,0.0291,0.0362,0.0301,0.0349,0.0351,0.0352,0.0352,0.0353,0.0353,-0.0747,-0.073,-0.0705,-0.0638,-0.055,-0.0392,-0.0248,-0.0077,0.0093,0.0135,0.0227,0.023,0.0261,0.0164,0.0164,0.0164,0.0164,0.0164,0.0163,-0.0788,-0.076,-0.0756,-0.0688,-0.0656,-0.0552,-0.0326,-0.0198,-0.0005,0.0126,0.0128,0.0233,0.0239,0.0251,0.0161,0.0161,0.0161,0.0162,0.0162,-0.081,-0.082,-0.0813,-0.0798,-0.0716,-0.0681,-0.0455,-0.0195,-0.0042,0.0048,0.0151,0.0152,0.0198,0.0205,0.0218,0.0124,0.0124,0.0124,0.0124,-0.0841,-0.084,-0.0851,-0.0841,-0.0794,-0.0724,-0.0573,-0.0293,-0.0014,0.0078,0.008,0.0108,0.0111,0.0155,0.0164,0.0177,0.0072,0.0072,0.0072,-0.0851,-0.0857,-0.0872,-0.087,-0.0839,-0.0791,-0.0732,-0.0462,-0.0103,0.0066,0.0032,0.0128,0.0178,0.018,0.0258,0.0267,0.0293,0,0]}],[{"header":{"parameterUnit":"m.s-1","parameterCategory":2,"la1":30.2992,"la2":30.254,"lo1":-89.0895,"lo2":-89.0443,"dy":0.0025,"dx":0.0025,"nx":19,"ny":19,"refTime":"2026-05-15T03:00:00:Z","depth":"4","parameterNumber":2,"parameterNumberName":"U-component_of_CURRENTS"},"data":[0,0,0,-0.1341,-0.1343,-0.1362,-0.1362,-0.1315,-0.1315,0,0,0,0,0,0,0,0,0,0,0,-0.1315,-0.1316,-0.1341,-0.1343,-0.1362,-0.1362,-0.1315,-0.1315,0,0,0,0,0,0,0,0,0,0,0,-0.1315,-0.1315,-0.1316,-0.1343,-0.1362,-0.1362,-0.1315,-0.1309,0,0,0,0,0,0,0,0,0,0,-0.1295,-0.1312,-0.1315,-0.1316,-0.1344,-0.1362,-0.1362,-0.1309,-0.1309,-0.1299,0,-0.1319,0,-0.1343,-0.1314,-0.1314,0,0,0,-0.1303,-0.1312,-0.1313,-0.1316,-0.1345,-0.1363,-0.1342,-0.1309,-0.131,-0.1299,-0.1319,-0.1319,-0.1342,-0.1314,-0.1314,-0.1345,-0.1345,0,0,-0.1302,-0.1316,-0.1313,-0.1314,-0.1372,-0.1342,-0.1343,-0.131,-0.1321,-0.1319,-0.1318,-0.1341,-0.1314,-0.1314,-0.1344,-0.1345,0,0,0,-0.1326,-0.1316,-0.1318,-0.1314,-0.1339,-0.1344,-0.1345,-0.1321,-0.1322,-0.1318,-0.1341,-0.1314,-0.1314,-0.1344,-0.1344,-0.1266,0,0,0,-0.1323,-0.1333,-0.1318,-0.1326,-0.134,-0.1347,-0.1358,-0.1323,-0.1321,-0.1341,-0.1314,-0.1314,-0.1343,-0.1344,-0.1267,-0.1299,0,0,0,-0.131,-0.1332,-0.1339,-0.1327,-0.1356,-0.1348,-0.1345,-0.1323,-0.1337,-0.1314,-0.1314,-0.1343,-0.1344,-0.1268,-0.1299,-0.1284,0,0,0,-0.1314,-0.1315,-0.134,-0.1349,-0.1356,-0.1355,-0.1345,-0.1376,-0.1368,-0.1314,-0.1343,-0.1344,-0.1268,-0.1299,-0.1285,-0.1123,0,0,0,-0.1305,-0.1315,-0.1315,-0.1338,-0.134,-0.1349,-0.1323,-0.1338,-0.1373,-0.1341,-0.1342,-0.1266,-0.1299,-0.1284,-0.1189,0,0,0,0,-0.1305,-0.1301,-0.1308,-0.1323,-0.1337,-0.1319,-0.1332,-0.1329,-0.1331,-0.1382,-0.1311,-0.1337,-0.1327,-0.1237,-0.135,-0.1349,-0.1349,-0.1349,-0.1349,-0.1299,-0.1296,-0.1301,-0.1292,-0.1293,-0.1308,-0.1294,-0.1299,-0.1308,-0.1323,-0.1301,-0.1289,-0.1191,-0.1302,-0.1302,-0.1301,-0.1301,-0.1301,-0.1301,-0.1284,-0.1265,-0.129,-0.1294,-0.1289,-0.1279,-0.1242,-0.1252,-0.1246,-0.1269,-0.126,-0.1198,-0.1294,-0.1295,-0.1296,-0.1297,-0.1298,-0.1298,-0.1298,-0.1263,-0.1241,-0.1287,-0.1287,-0.1297,-0.1278,-0.124,-0.1242,-0.1241,-0.1238,-0.116,-0.1271,-0.1244,-0.1226,-0.1226,-0.1226,-0.1226,-0.1226,-0.1226,-0.1203,-0.1233,-0.1235,-0.1261,-0.1266,-0.126,-0.1252,-0.122,-0.1219,-0.1125,-0.1248,-0.1266,-0.1268,-0.1244,-0.1227,-0.1227,-0.1227,-0.1227,-0.1226,-0.1083,-0.1131,-0.111,-0.1125,-0.112,-0.1111,-0.1164,-0.1087,-0.1045,-0.0993,-0.1043,-0.1052,-0.1082,-0.109,-0.1059,-0.0987,-0.0985,-0.0983,0,-0.0996,-0.1017,-0.0964,-0.093,-0.0883,-0.0968,-0.0869,-0.0873,-0.0892,-0.086,-0.1028,-0.1086,-0.109,-0.1126,-0.113,-0.1095,0,0,0,-0.0903,-0.0906,-0.0818,-0.0802,-0.0745,-0.0739,-0.082,-0.0767,-0.0928,-0.0841,-0.093,-0.0944,-0.1106,-0.1229,-0.1298,-0.1301,-0.1266,0,0]},{"header":{"parameterUnit":"m.s-1","parameterCategory":2,"la1":30.2992,"la2":30.254,"lo1":-89.0895,"lo2":-89.0443,"dy":0.0025,"dx":0.0025,"nx":19,"ny":19,"refTime":"2026-05-15T03:00:00:Z","depth":"4","parameterNumber":3,"parameterNumberName":"V-component_of_CURRENTS"},"data":[0,0,0,-0.0483,-0.0483,-0.0501,-0.0501,-0.0653,-0.0654,0,0,0,0,0,0,0,0,0,0,0,-0.0477,-0.0477,-0.0483,-0.0483,-0.0501,-0.0501,-0.0652,-0.0654,0,0,0,0,0,0,0,0,0,0,0,-0.0477,-0.0477,-0.0477,-0.0483,-0.0501,-0.0501,-0.0652,-0.0608,0,0,0,0,0,0,0,0,0,0,-0.0575,-0.0553,-0.0477,-0.0477,-0.0483,-0.0501,-0.0501,-0.0604,-0.0611,-0.0681,0,-0.0677,0,-0.0672,-0.0667,-0.0668,0,0,0,-0.0488,-0.0547,-0.0548,-0.0477,-0.0484,-0.05,-0.0494,-0.0607,-0.0614,-0.069,-0.0679,-0.0683,-0.0674,-0.0668,-0.0669,-0.0735,-0.0735,0,0,-0.0487,-0.049,-0.0542,-0.0552,-0.0484,-0.0493,-0.0494,-0.061,-0.0622,-0.0679,-0.0686,-0.0677,-0.0669,-0.0671,-0.0736,-0.0735,0,0,0,-0.0481,-0.0489,-0.0485,-0.0547,-0.0541,-0.0494,-0.0495,-0.0616,-0.0613,-0.0688,-0.0679,-0.0671,-0.0673,-0.0737,-0.0736,-0.0721,0,0,0,-0.0481,-0.0485,-0.0484,-0.0487,-0.0538,-0.0562,-0.0499,-0.0605,-0.0617,-0.0678,-0.0671,-0.0675,-0.0738,-0.0736,-0.0723,-0.0699,0,0,0,-0.0477,-0.0485,-0.0484,-0.0487,-0.0492,-0.0559,-0.0563,-0.0606,-0.0613,-0.0668,-0.0675,-0.0738,-0.0737,-0.0725,-0.0703,-0.0663,0,0,0,-0.0484,-0.0489,-0.0484,-0.0488,-0.0491,-0.0493,-0.0561,-0.0572,-0.0607,-0.0672,-0.0738,-0.0736,-0.0726,-0.0705,-0.0665,-0.0688,0,0,0,-0.0494,-0.049,-0.049,-0.0486,-0.0492,-0.0491,-0.0508,-0.0577,-0.0609,-0.0713,-0.0713,-0.0723,-0.0703,-0.0664,-0.0589,0,0,0,0,-0.0496,-0.0501,-0.0499,-0.0502,-0.0496,-0.0504,-0.0542,-0.056,-0.0611,-0.0623,-0.0693,-0.0679,-0.0656,-0.0674,-0.0728,-0.0728,-0.0728,-0.0728,-0.0729,-0.0531,-0.052,-0.0525,-0.0516,-0.0513,-0.0516,-0.0521,-0.0552,-0.0599,-0.0591,-0.0647,-0.0574,-0.0592,-0.0631,-0.0631,-0.0631,-0.0631,-0.0631,-0.0631,-0.0555,-0.0557,-0.0544,-0.0547,-0.0539,-0.0548,-0.0548,-0.0555,-0.056,-0.0594,-0.0573,-0.0631,-0.0629,-0.0629,-0.0629,-0.063,-0.063,-0.063,-0.063,-0.0587,-0.0582,-0.0586,-0.0586,-0.0581,-0.0567,-0.0551,-0.054,-0.0535,-0.0516,-0.0518,-0.0545,-0.057,-0.0501,-0.0501,-0.0501,-0.05,-0.05,-0.05,-0.0612,-0.0612,-0.0633,-0.0622,-0.0624,-0.0596,-0.0545,-0.0513,-0.0478,-0.0475,-0.0495,-0.053,-0.0534,-0.056,-0.0496,-0.0496,-0.0497,-0.0497,-0.0498,-0.0634,-0.0651,-0.0677,-0.0691,-0.0691,-0.0662,-0.0588,-0.0478,-0.0437,-0.0394,-0.0454,-0.0458,-0.0458,-0.0464,-0.0488,-0.04,-0.04,-0.04,0,-0.0656,-0.0662,-0.0725,-0.0768,-0.0775,-0.0715,-0.0633,-0.0551,-0.0474,-0.0495,-0.0478,-0.0556,-0.0555,-0.0568,-0.0572,-0.0606,0,0,0,-0.0667,-0.0685,-0.0747,-0.0807,-0.0831,-0.0712,-0.0615,-0.058,-0.048,-0.0394,-0.04,-0.04,-0.047,-0.0482,-0.049,-0.0496,-0.0537,0,0]}]]